Simultaneous Nadir Overpasses (SNOs) Predictions

Prediction of SNOs between NOAA-19 and METOP-C Satellite Orbit:

Table of predicted SNOs for the next 14.0 days since TLE Epoch: 7/18/2024
Index Date (NOAA-19) Time (NOAA-19) Lat,Lon (NOAA-19) SZA (NOAA-19 ) Date (METOP-C) Time (METOP-C) Lat,Lon (METOP-C) SZA (METOP-C ) Distance(km) Time Diff (sec)
1 07/19/2024 13:45:55 -78.41, 163.95 122.19 07/19/2024 13:47:10 -78.40, 163.85 122.19 2.75 75
2 07/19/2024 14:36:54 78.58, -27.73 58.03 07/19/2024 14:37:45 78.58, -27.78 58.03 1.21 51
3 07/19/2024 15:27:46 -78.66, 140.07 121.87 07/19/2024 15:28:25 -78.65, 140.03 121.87 1.07 39
4 07/19/2024 16:18:46 78.79, -51.80 58.30 07/19/2024 16:19:01 78.79, -51.78 58.31 0.48 15
5 07/19/2024 17:09:38 -78.86, 116.01 121.60 07/19/2024 17:09:41 -78.87, 116.04 121.60 0.60 3
6 07/19/2024 18:00:38 78.99, -75.82 58.57 07/19/2024 18:00:17 79.00, -75.74 58.58 2.14 21
7 07/19/2024 18:51:30 -79.06, 92.01 121.33 07/19/2024 18:50:57 -79.07, 92.10 121.32 2.24 33
8 07/19/2024 19:42:28 79.25, -99.26 58.94 07/19/2024 19:41:32 79.23, -99.38 58.91 2.78 56
9 07/19/2024 20:33:21 -79.28, 68.32 121.01 07/19/2024 20:32:13 -79.27, 68.21 121.04 2.69 68
10 07/31/2024 12:06:59 77.95, 6.30 59.90 07/31/2024 12:07:55 77.95, 6.31 59.91 0.44 56
11 07/31/2024 12:57:49 -78.13, 174.58 119.89 07/31/2024 12:58:33 -78.12, 174.52 119.89 1.71 44
12 07/31/2024 13:48:49 78.25, -17.47 60.27 07/31/2024 13:49:09 78.26, -17.39 60.28 2.20 20
13 07/31/2024 14:39:40 -78.38, 150.62 119.57 07/31/2024 14:39:48 -78.38, 150.63 119.57 0.10 8
14 07/31/2024 15:30:37 78.61, -40.69 60.72 07/31/2024 15:30:22 78.60, -40.79 60.70 2.65 15
15 07/31/2024 16:21:31 -78.63, 126.72 119.25 07/31/2024 16:21:03 -78.64, 126.80 119.24 1.88 28
16 07/31/2024 17:12:29 78.81, -64.76 61.00 07/31/2024 17:11:38 78.81, -64.80 60.98 0.94 51



Historial Predications of SNOs between NOAA-19 and METOP-C
